Regional Weather Roundup
Issued by NWS

Home | Current Version | Previous Version | Text Only | Print | Product List | Glossary Off
Versions: 1 2 3 4 5 6 7 8 9 10 11 12 13 14 15 16 17 18 19 20 21 22 23 24 25 26 27 28 29 30 31 32 33 34 35 36 37 38 39 40 41 42 43 44 45 46 47 48 49 50

000
ASUS43 KMKX 231311
RWRWI

WISCONSIN REGIONAL WEATHER ROUNDUP
NATIONAL WEATHER SERVICE MILWAUKEE/SULLIVAN WI
800 AM CDT SAT JUL 23 2016

NOTE: "FAIR" INDICATES FEW OR NO CLOUDS BELOW 12,000 FEET WITH NO
SIGNIFICANT WEATHER AND/OR OBSTRUCTIONS TO VISIBILITY.

WIZ001-002-006>008-014>016-023>028-231400-
NORTHWEST WISCONSIN

CITY           SKY/WX    TMP DP  RH WIND       PRES   REMARKS
SUPERIOR ARPT  SUNNY     71  66  85 NE5       29.97S
ASHLAND        SUNNY     72  62  71 CALM      30.00F
HAYWARD        SUNNY     74  63  68 CALM      30.00F
SIREN          SUNNY     75  64  69 SE6       29.96F
CUMBERLAND     SUNNY     72  64  78 E5        29.98F
RICE LAKE      SUNNY     71  68  88 CALM      29.99F
CHETEK         SUNNY     73  70  89 SE3       29.99S
LADYSMITH      SUNNY     74  66  77 E5        30.03R
EAU CLAIRE     SUNNY     74  70  87 NE6       29.96F
MENOMONIE      CLOUDY    74  70  88 E3        29.96F
NEW RICHMOND   MOSUNNY   76  66  70 E7        29.95F
OSCEOLA        CLOUDY    75  67  75 E8        29.97F
$$

WIZ003>005-009-010-017-018-231400-
NORTH CENTRAL WISCONSIN

CITY           SKY/WX    TMP DP  RH WIND       PRES   REMARKS
MANITOWISH WTR SUNNY     72  67  83 CALM      30.04S
ARBOR VITAE    SUNNY     75  64  70 CALM      30.03F
WOODRUFF       SUNNY     75  64  70 CALM      30.03F
RHINELANDER    SUNNY     73  67  81 E5        30.04F
EAGLE RIVER    SUNNY     69  64  84 CALM      30.04F
LAND O LAKES   SUNNY     70  64  81 CALM      30.06S
PHILLIPS       SUNNY     71  64  79 E3        30.02F
TOMAHAWK       SUNNY     71  68  89 CALM      30.04S
MEDFORD        SUNNY     71  67  88 NE5       30.02S
MERRILL        SUNNY     70  69  97 NE3       30.02F
$$

WIZ029-030-035-036-043>047-231400-
CENTRAL WISCONSIN

CITY           SKY/WX    TMP DP  RH WIND       PRES   REMARKS
WAUSAU         SUNNY     74  68  81 CALM      29.99F
MOSINEE        SUNNY     73  70  88 NE5       30.02S
MARSHFIELD     SUNNY     77  67  71 E6        30.00F
STEVENS POINT  SUNNY     73  67  82 NE5       30.01S
WAUPACA        SUNNY     75  70  82 N3        30.00S
WAUTOMA        SUNNY     74  69  85 CALM      29.99F
WISC RAPIDS    SUNNY     77  66  68 E7        30.00F
CAMP DOUGLAS   PTSUNNY   70  70 100 CALM      29.97F
$$

WIZ011>013-019>022-031-037>040-048>050-231400-
NORTHEAST WISCONSIN

CITY           SKY/WX    TMP DP  RH WIND       PRES   REMARKS
ANTIGO         MOSUNNY   72  66  81 CALM      30.04F
SHAWANO        MOSUNNY   73  67  82 CALM      30.00S
OCONTO         MOSUNNY   73  70  91 CALM      29.99S
STURGEON BAY   MOSUNNY   75  65  70 NW5       30.00R
GREEN BAY      SUNNY     76  69  79 CALM      29.99R
MANITOWOC      MOSUNNY   77  67  71 CALM      29.99R
APPLETON       MOSUNNY   77  61  57 VRB6      29.99R
CLINTONVILLE   SUNNY     73  68  83 NE3       29.99F
OSHKOSH          N/A     79  70  74 NE6       29.98F HX  82
$$

WIZ032>034-041-042-053>061-231400-
SOUTHWEST WISCONSIN

CITY           SKY/WX    TMP DP  RH WIND       PRES   REMARKS
LA CROSSE      MOSUNNY   78  75  90 E6        29.94F HX  81
SPARTA         PTSUNNY   71  68  91 CALM      29.98S
VIROQUA        CLOUDY    77  77 100 E5        29.99S VSB<1/4
BOSCOBEL       FOG       78  76  93 N3        29.97R VSB 1/2 HX  81
PRAIRIE DU CHI HVY RAIN  78  75  91 E3        29.95R HX  80
PLATTEVILLE    PTSUNNY   78  78 100 SE3       29.99R HX  81
$$

WIZ056-057-062-063-064-067-068-231400-
SOUTH CENTRAL WISCONSIN

CITY           SKY/WX    TMP DP  RH WIND       PRES   REMARKS
REEDSBURG      CLOUDY    74  74 100 CALM      29.97F FOG
BARABOO/DELLS  CLOUDY    75  74  95 CALM      29.98F FOG
LONE ROCK      FOG       77  76  96 CALM      29.97S VSB 1
MINERAL POINT  FOG       79  77  94 CALM      29.99S VSB 1/4 HX  83
MADISON        PTSUNNY   82  77  84 NE3       29.97F HX  90
MIDDLETON      PTSUNNY   80  80 100 CALM      29.98F HX  87
WATERTOWN      FOG       75  75 100 CALM      29.99R VSB<1/4
MONROE         MOSUNNY   79  75  89 NE3       29.98F HX  82
JANESVILLE     SUNNY     81  77  89 CALM      29.98S HX  88
$$

WIZ051-052-058>065-066-070>072-231400-
SOUTHEAST WISCONSIN

CITY           SKY/WX    TMP DP  RH WIND       PRES   REMARKS
MILWAUKEE      MOSUNNY   84  76  76 CALM      29.98S HX  93
WAUKESHA       FOG       73  73 100 CALM      30.01S VSB 1/4
MILWAUKEE/TIMM SUNNY     79  73  83 CALM      29.99S HX  82
RACINE         SUNNY     81  76  84 CALM      30.00S HX  87
BURLINGTON     SUNNY     79  78  98 CALM      29.99S HX  83
KENOSHA        SUNNY     80  76  87 CALM      29.99S HX  86
FOND DU LAC    FOG       74  73  97 CALM      29.99S VSB 1/4
SHEBOYGAN      MOSUNNY   78  72  81 CALM      29.98S HX  80
WEST BEND      SUNNY     77  73  88 CALM      29.99S
JUNEAU         FOG       74  74  99 CALM      30.00F VSB<1/4
$$

LSZ147-162-231400-
LAKE SUPERIOR

STATION/POSITION TIME  TEMP    WIND        PRES    WAVE
                       AIR SEA DIR/SP/G            HT/PER
                 (UTC) (F)     (DEG/KT/KT) (MB)    (FT/S)
W MID LAKE BUOY  1250   62 57   80/  4/  4 1015.0F   0
DEVILS ISLAND    1300   70     120/  2/  3 1015.5F
SAXON HARBOR     1240   69      CALM  /  1 1015.6S
$$

LMZ867-665-643>646-231400-
LAKE MICHIGAN

STATION/POSITION TIME  TEMP    WIND        PRES    WAVE
                       AIR SEA DIR/SP/G            HT/PER
                 (UTC) (F)     (DEG/KT/KT) (MB)    (FT/S)
CHAMBERS ISLAND  1200   77     350/  2/  4 1015.2S
S GREEN BAY BUOY 1200   73 74   10/  2/  2   N/A
N MID LAKE BUOY  1250   69 68  310/  4/  6 1014.6R   1/ 4
NORTHPORT PIER   1200   73     310/  8/  9 1014.9F
KEWAUNEE LAKESHO 1200   71     310/  2/  4 1014.4F
SHEBOYGAN LAKESH 1300   76     360/  7/  7 1015.2R
PORT WASHINGTON  1200   74     310/  1/  3 1015.6
MILWAUKEE LAKESH 1210   80      CALM  /  1   N/A
S MID LAKE BUOY  1250   74 73  220/  2/  2 1014.5F
KENOSHA   LAKESH 1300   77     130/  1/  2 1014.9S
$$

TC  - TEMPERATURE IN CELSIUS
VSB - VISIBILITY IN STATUTE MILES
WCI - WIND CHILL INDEX
HX  - HEAT INDEX




USA.gov is the U.S. government's official web portal to all federal, state and local government web resources and services.